Radiation Dose at Monitoring Post of Fukushima Daini Nuclear Power Station
Date,Time,MP-1(microSv/h),MP-2(microSv/h),MP-3(microSv/h),MP-4(microSv/h),MP-5(microSv/h),MP-6(microSv/h),MP-7(microSv/h),Wind Direction,Wind Velocity(m/s),Rain
2021/01/24,00:00,0.182,0.165,0.261,0.247,0.243,0.146,0.090,north-northeast,8.4,Yes
2021/01/24,00:10,0.182,0.163,0.260,0.247,0.242,0.145,0.091,northeast,9.0,Yes
2021/01/24,00:20,0.180,0.165,0.262,0.248,0.242,0.145,0.090,north-northeast,9.0,Yes
2021/01/24,00:30,0.181,0.164,0.262,0.247,0.242,0.146,0.092,northeast,9.6,Yes
2021/01/24,00:40,0.181,0.164,0.261,0.247,0.242,0.145,0.091,north-northeast,7.9,Yes
2021/01/24,00:50,0.182,0.164,0.261,0.247,0.243,0.146,0.091,north-northeast,7.9,Yes
2021/01/24,01:00,0.182,0.165,0.262,0.248,0.244,0.147,0.091,north-northeast,6.5,Yes
2021/01/24,01:10,0.183,0.166,0.264,0.249,0.243,0.147,0.092,north-northeast,7.6,Yes
2021/01/24,01:20,0.183,0.167,0.264,0.248,0.244,0.147,0.092,north-northeast,9.0,Yes
2021/01/24,01:30,0.183,0.168,0.264,0.249,0.244,0.148,0.092,north-northeast,9.0,Yes
2021/01/24,01:40,0.184,0.167,0.264,0.249,0.245,0.148,0.093,north-northeast,7.0,Yes
2021/01/24,01:50,0.184,0.168,0.265,0.249,0.244,0.149,0.093,north-northeast,8.4,Yes
2021/01/24,02:00,0.183,0.169,0.265,0.249,0.244,0.149,0.092,north-northeast,7.6,Yes
2021/01/24,02:10,0.184,0.168,0.264,0.250,0.245,0.149,0.093,north,8.1,Yes
2021/01/24,02:20,0.185,0.169,0.266,0.248,0.245,0.149,0.092,north-northeast,8.1,Yes
2021/01/24,02:30,0.186,0.168,0.265,0.250,0.245,0.148,0.092,north-northeast,9.2,Yes
2021/01/24,02:40,0.185,0.166,0.264,0.249,0.244,0.149,0.094,north-northeast,8.5,Yes
2021/01/24,02:50,0.185,0.168,0.262,0.250,0.244,0.149,0.093,north-northeast,8.2,Yes
2021/01/24,03:00,0.185,0.167,0.262,0.247,0.245,0.147,0.093,north-northeast,9.0,Yes
2021/01/24,03:10,0.185,0.166,0.261,0.246,0.245,0.148,0.093,north-northeast,9.2,Yes
2021/01/24,03:20,0.184,0.168,0.263,0.248,0.243,0.147,0.092,north-northeast,7.1,Yes
2021/01/24,03:30,0.183,0.166,0.261,0.247,0.241,0.146,0.092,north,7.0,Yes
2021/01/24,03:40,0.184,0.166,0.261,0.247,0.241,0.147,0.091,north-northeast,7.3,Yes
2021/01/24,03:50,0.182,0.164,0.261,0.245,0.241,0.146,0.090,north,8.1,Yes
2021/01/24,04:00,0.181,0.164,0.259,0.245,0.241,0.143,0.089,north,8.4,Yes
2021/01/24,04:10,0.181,0.163,0.258,0.243,0.240,0.144,0.089,north,6.7,Yes
2021/01/24,04:20,0.180,0.162,0.258,0.244,0.239,0.144,0.088,north-northwest,6.6,No
2021/01/24,04:30,0.181,0.162,0.257,0.242,0.238,0.142,0.087,north-northwest,7.0,No
2021/01/24,04:40,0.179,0.160,0.255,0.241,0.238,0.143,0.087,north-northwest,5.6,No
2021/01/24,04:50,0.180,0.161,0.256,0.241,0.239,0.142,0.086,north-northwest,7.1,No
2021/01/24,05:00,0.178,0.161,0.256,0.241,0.238,0.142,0.086,north-northwest,7.6,No
2021/01/24,05:10,0.179,0.159,0.257,0.242,0.239,0.141,0.086,north-northwest,7.6,No
2021/01/24,05:20,0.178,0.159,0.255,0.240,0.237,0.140,0.086,northwest,7.5,No
2021/01/24,05:30,0.178,0.159,0.254,0.241,0.237,0.140,0.085,north-northwest,8.1,No
2021/01/24,05:40,0.178,0.159,0.255,0.241,0.238,0.140,0.085,north-northwest,8.2,Yes
2021/01/24,05:50,0.178,0.158,0.255,0.241,0.239,0.139,0.085,north-northwest,7.7,No
2021/01/24,06:00,0.178,0.158,0.254,0.239,0.238,0.139,0.085,north-northwest,7.9,Yes
2021/01/24,06:10,0.178,0.158,0.254,0.241,0.238,0.140,0.085,north-northwest,8.4,No
2021/01/24,06:20,0.177,0.159,0.255,0.240,0.237,0.140,0.084,north-northwest,9.2,No
2021/01/24,06:30,0.177,0.160,0.255,0.241,0.237,0.141,0.085,north-northwest,8.1,No
2021/01/24,06:40,0.179,0.159,0.253,0.241,0.238,0.141,0.084,northwest,9.2,No
2021/01/24,06:50,0.178,0.159,0.255,0.239,0.237,0.140,0.085,northwest,8.4,No
2021/01/24,07:00,0.178,0.159,0.254,0.240,0.237,0.140,0.085,northwest,8.7,No
2021/01/24,07:10,0.178,0.159,0.255,0.241,0.237,0.141,0.084,northwest,9.2,No
2021/01/24,07:20,0.178,0.158,0.255,0.240,0.236,0.140,0.085,northwest,9.5,No
2021/01/24,07:30,0.178,0.158,0.253,0.239,0.237,0.141,0.085,north-northwest,9.2,No
2021/01/24,07:40,0.179,0.160,0.254,0.240,0.237,0.140,0.085,northwest,10.1,No
2021/01/24,07:50,0.178,0.159,0.255,0.239,0.238,0.140,0.086,northwest,9.8,No
2021/01/24,08:00,0.178,0.159,0.255,0.240,0.237,0.140,0.085,northwest,9.0,No
2021/01/24,08:10,0.177,0.158,0.255,0.239,0.237,0.141,0.085,northwest,9.0,No
2021/01/24,08:20,0.178,0.159,0.255,0.241,0.237,0.140,0.085,north-northwest,8.2,No
2021/01/24,08:30,0.178,0.160,0.255,0.241,0.238,0.140,0.085,north-northwest,8.1,No
2021/01/24,08:40,0.179,0.159,0.255,0.241,0.239,0.140,0.086,northwest,9.3,No
2021/01/24,08:50,0.178,0.158,0.256,0.241,0.238,0.140,0.085,north-northwest,8.4,No
2021/01/24,09:00,0.179,0.159,0.257,0.242,0.238,0.140,0.085,northwest,9.8,No
2021/01/24,09:10,0.179,0.160,0.256,0.242,0.238,0.141,0.086,north-northwest,10.9,No
2021/01/24,09:20,0.179,0.159,0.256,0.241,0.239,0.141,0.085,north-northwest,8.4,No
2021/01/24,09:30,0.180,0.161,0.255,0.241,0.239,0.142,0.086,northwest,9.8,No
2021/01/24,09:40,0.179,0.160,0.257,0.242,0.238,0.142,0.086,northwest,9.6,Yes
2021/01/24,09:50,0.179,0.160,0.257,0.241,0.239,0.142,0.086,northwest,9.0,No
2021/01/24,10:00,0.180,0.161,0.256,0.242,0.240,0.142,0.086,northwest,9.8,Yes
2021/01/24,10:10,0.180,0.160,0.256,0.242,0.239,0.142,0.086,northwest,9.5,Yes
2021/01/24,10:20,0.180,0.162,0.257,0.242,0.239,0.141,0.087,northwest,10.6,Yes
2021/01/24,10:30,0.179,0.161,0.257,0.241,0.238,0.142,0.086,northwest,9.0,Yes
2021/01/24,10:40,0.179,0.161,0.257,0.242,0.240,0.141,0.087,northwest,9.5,Yes
2021/01/24,10:50,0.180,0.160,0.256,0.242,0.240,0.141,0.087,north-northwest,9.0,Yes
2021/01/24,11:00,0.180,0.161,0.256,0.243,0.238,0.141,0.087,north-northwest,8.7,Yes
2021/01/24,11:10,0.179,0.161,0.257,0.241,0.238,0.141,0.085,north-northwest,10.9,Yes
2021/01/24,11:20,0.180,0.161,0.257,0.242,0.239,0.141,0.086,north-northwest,10.7,Yes
2021/01/24,11:30,0.178,0.160,0.256,0.241,0.239,0.141,0.086,northwest,10.1,Yes
2021/01/24,11:40,0.180,0.159,0.255,0.241,0.238,0.141,0.085,northwest,7.3,Yes
2021/01/24,11:50,0.179,0.160,0.256,0.240,0.238,0.141,0.086,northwest,9.0,No
2021/01/24,12:00,0.178,0.160,0.257,0.242,0.238,0.141,0.085,north-northwest,8.8,Yes
2021/01/24,12:10,0.179,0.160,0.256,0.241,0.239,0.142,0.085,north-northwest,8.1,Yes
2021/01/24,12:20,0.178,0.160,0.255,0.241,0.238,0.141,0.085,north-northwest,8.7,No
2021/01/24,12:30,0.179,0.160,0.256,0.242,0.238,0.141,0.085,northwest,9.8,Yes
2021/01/24,12:40,0.178,0.161,0.256,0.242,0.238,0.142,0.085,northwest,7.9,No
2021/01/24,12:50,0.178,0.160,0.257,0.241,0.238,0.142,0.085,northwest,8.4,No
2021/01/24,13:00,0.178,0.159,0.255,0.241,0.238,0.141,0.086,northwest,8.2,No
2021/01/24,13:10,0.178,0.160,0.256,0.241,0.239,0.142,0.085,northwest,8.4,Yes
2021/01/24,13:20,0.179,0.161,0.255,0.241,0.238,0.142,0.085,northwest,9.2,Yes
2021/01/24,13:30,0.178,0.160,0.255,0.240,0.238,0.141,0.085,north-northwest,8.7,Yes
2021/01/24,13:40,0.178,0.160,0.256,0.241,0.237,0.140,0.085,northwest,9.2,No
2021/01/24,13:50,0.178,0.160,0.256,0.241,0.238,0.141,0.086,north-northwest,9.2,No
2021/01/24,14:00,0.178,0.159,0.255,0.240,0.238,0.141,0.085,northwest,9.5,Yes
2021/01/24,14:10,0.179,0.159,0.256,0.240,0.238,0.141,0.085,north-northwest,8.4,Yes
2021/01/24,14:20,0.178,0.161,0.255,0.242,0.237,0.141,0.086,northwest,7.6,Yes
2021/01/24,14:30,0.180,0.160,0.257,0.241,0.239,0.141,0.086,north-northwest,8.7,Yes
2021/01/24,14:40,0.179,0.160,0.255,0.242,0.239,0.142,0.086,northwest,9.0,Yes
2021/01/24,14:50,0.178,0.160,0.256,0.242,0.239,0.141,0.085,north-northwest,8.2,No
2021/01/24,15:00,0.179,0.160,0.256,0.242,0.238,0.140,0.086,north-northwest,7.9,No
2021/01/24,15:10,0.178,0.160,0.256,0.242,0.238,0.141,0.086,north-northwest,8.4,No
2021/01/24,15:20,0.179,0.160,0.256,0.240,0.238,0.142,0.085,north-northwest,7.6,Yes
2021/01/24,15:30,0.179,0.160,0.256,0.242,0.238,0.141,0.086,north-northwest,7.4,No
2021/01/24,15:40,0.179,0.160,0.255,0.240,0.237,0.141,0.085,north-northwest,7.0,No
2021/01/24,15:50,0.178,0.159,0.256,0.242,0.239,0.141,0.085,north-northwest,8.1,No
2021/01/24,16:00,0.178,0.160,0.256,0.241,0.238,0.142,0.085,northwest,8.5,No
2021/01/24,16:10,0.178,0.159,0.255,0.241,0.238,0.141,0.085,northwest,8.5,No
2021/01/24,16:20,0.179,0.159,0.255,0.240,0.237,0.141,0.086,north-northwest,8.7,Yes
2021/01/24,16:30,0.179,0.160,0.255,0.242,0.238,0.141,0.085,north-northwest,8.7,No
2021/01/24,16:40,0.178,0.159,0.256,0.243,0.237,0.141,0.085,north-northwest,7.1,No
2021/01/24,16:50,0.179,0.158,0.256,0.242,0.238,0.140,0.084,north-northwest,8.1,No
2021/01/24,17:00,0.177,0.159,0.256,0.241,0.238,0.141,0.085,north-northwest,8.1,No
2021/01/24,17:10,0.179,0.158,0.256,0.241,0.238,0.141,0.084,northwest,8.7,No
2021/01/24,17:20,0.179,0.160,0.255,0.241,0.238,0.141,0.084,northwest,8.2,No
2021/01/24,17:30,0.177,0.159,0.254,0.241,0.238,0.140,0.085,north-northwest,8.1,No
2021/01/24,17:40,0.178,0.159,0.255,0.240,0.237,0.141,0.085,northwest,9.8,No
2021/01/24,17:50,0.178,0.158,0.255,0.241,0.237,0.140,0.085,northwest,7.3,No
2021/01/24,18:00,0.178,0.159,0.256,0.241,0.237,0.141,0.085,north-northwest,8.7,No
2021/01/24,18:10,0.178,0.158,0.256,0.241,0.238,0.140,0.085,north-northwest,9.2,No
2021/01/24,18:20,0.177,0.160,0.256,0.239,0.238,0.140,0.085,north-northwest,8.7,No
2021/01/24,18:30,0.178,0.159,0.255,0.241,0.237,0.140,0.085,north-northwest,7.9,No
2021/01/24,18:40,0.178,0.159,0.254,0.242,0.238,0.140,0.085,north-northwest,8.1,No
2021/01/24,18:50,0.178,0.160,0.255,0.241,0.238,0.141,0.085,north-northwest,9.3,No
2021/01/24,19:00,0.178,0.159,0.255,0.240,0.238,0.141,0.084,north-northwest,9.0,No
2021/01/24,19:10,0.178,0.159,0.257,0.241,0.239,0.140,0.084,northwest,8.4,No
2021/01/24,19:20,0.179,0.159,0.256,0.241,0.238,0.141,0.085,northwest,7.6,No
2021/01/24,19:30,0.179,0.160,0.255,0.240,0.238,0.140,0.085,northwest,7.9,No
2021/01/24,19:40,0.178,0.160,0.254,0.241,0.238,0.141,0.084,north-northwest,7.1,No
2021/01/24,19:50,0.177,0.159,0.257,0.242,0.238,0.141,0.085,northwest,7.7,No
2021/01/24,20:00,0.179,0.160,0.256,0.241,0.237,0.141,0.086,north-northwest,7.4,No
2021/01/24,20:10,0.178,0.158,0.255,0.240,0.239,0.140,0.086,north-northwest,8.5,No
2021/01/24,20:20,0.178,0.159,0.256,0.241,0.237,0.140,0.085,north-northwest,7.9,No
2021/01/24,20:30,0.179,0.158,0.256,0.241,0.237,0.140,0.085,north-northwest,8.8,No
2021/01/24,20:40,0.179,0.159,0.255,0.242,0.238,0.141,0.085,north-northwest,8.4,No
2021/01/24,20:50,0.177,0.160,0.255,0.241,0.237,0.140,0.086,north-northwest,8.2,No
2021/01/24,21:00,0.177,0.159,0.255,0.241,0.238,0.140,0.085,north-northwest,7.6,No
2021/01/24,21:10,0.178,0.159,0.256,0.241,0.238,0.141,0.085,north-northwest,8.4,No
2021/01/24,21:20,0.179,0.158,0.256,0.241,0.237,0.140,0.084,north-northwest,7.3,No
2021/01/24,21:30,0.178,0.158,0.256,0.241,0.237,0.141,0.084,north-northwest,8.1,No
2021/01/24,21:40,0.178,0.159,0.256,0.241,0.238,0.141,0.085,north-northwest,7.9,No
2021/01/24,21:50,0.178,0.159,0.255,0.241,0.238,0.141,0.085,northwest,7.6,No
2021/01/24,22:00,0.178,0.160,0.255,0.241,0.237,0.140,0.085,northwest,7.9,No
2021/01/24,22:10,0.178,0.160,0.255,0.241,0.238,0.140,0.085,north-northwest,6.7,No
2021/01/24,22:20,0.177,0.159,0.255,0.241,0.238,0.141,0.085,north-northwest,8.5,No
2021/01/24,22:30,0.176,0.160,0.255,0.240,0.237,0.141,0.084,north-northwest,7.7,No
2021/01/24,22:40,0.178,0.159,0.255,0.241,0.237,0.141,0.085,north-northwest,7.9,No
2021/01/24,22:50,0.178,0.159,0.255,0.242,0.237,0.140,0.085,north-northwest,8.1,No
2021/01/24,23:00,0.178,0.158,0.255,0.241,0.238,0.140,0.085,north-northwest,7.1,No
2021/01/24,23:10,0.179,0.159,0.255,0.242,0.238,0.141,0.084,north-northwest,7.9,No
2021/01/24,23:20,0.179,0.159,0.254,0.241,0.238,0.140,0.085,north-northwest,7.1,No
2021/01/24,23:30,0.177,0.159,0.255,0.241,0.239,0.141,0.084,north-northwest,7.3,No
2021/01/24,23:40,0.178,0.159,0.256,0.241,0.238,0.141,0.085,north-northwest,7.7,No
2021/01/24,23:50,0.178,0.160,0.255,0.241,0.237,0.139,0.084,north-northwest,7.4,No
